DW4300 Weather Reports


time (UTC)temp
C
wind
direction
speed
KPH
gust
KPH
rain 1hr
cm
rain 24hr
cm
rain mn
cm
humidity
%
barometer
mb
20260906022502 28 0 0.0 0.0 0.00 0.00 0.00 76 1011.3
20260906022003 28 0 0.0 0.0 0.00 0.00 0.00 76 1011.2
20260906021503 29 0 0.0 0.0 0.00 0.00 0.00 75 1011.1
20260906020503 29 0 0.0 0.0 0.00 0.00 0.00 74 1010.9
20260906015502 30 0 0.0 0.0 0.00 0.00 0.00 73 1010.9
20260906014502 30 0 0.0 0.0 0.00 0.00 0.00 73 1010.8
20260906014002 30 0 0.0 0.0 0.00 0.00 0.00 73 1010.7
20260906013504 30 0 0.0 0.0 0.00 0.00 0.00 72 1010.8
20260906012502 30 0 0.0 0.0 0.00 0.00 0.00 71 1010.7
20260906011502 30 0 0.0 0.0 0.00 0.00 0.00 70 1010.7
20260906011002 30 0 0.0 0.0 0.00 0.00 0.00 70 1010.6
20260906010504 30 0 0.0 0.0 0.00 0.00 0.00 69 1010.6
20260906010003 30 0 0.0 0.0 0.00 0.00 0.00 69 1010.5
20260906005502 31 0 0.0 0.0 0.00 0.00 0.00 68 1010.4
20260906005004 31 0 0.0 0.0 0.00 0.00 0.00 67 1010.2
20260906004003 31 0 0.0 0.0 0.00 0.00 0.00 66 1010.2
20260906003503 31 0 0.0 0.0 0.00 0.00 0.00 66 1010.1
20260906003002 31 0 0.0 0.0 0.00 0.00 0.00 65 1010.2
20260906002503 32 0 0.0 0.0 0.00 0.00 0.00 64 1010.2
20260906001003 32 37 3.2 4.8 0.00 0.00 0.00 63 1010.3
20260906000504 32 37 3.2 4.8 0.00 0.00 0.00 62 1010.3
20260906000002 32 37 3.2 4.8 0.00 0.00 0.00 61 1010.3
20260905235503 33 36 3.2 4.8 0.00 0.00 0.00 60 1010.3
20260905234002 33 38 4.8 6.4 0.00 0.00 0.00 58 1010.2
20260905233503 33 30 4.8 6.4 0.00 0.00 0.00 58 1010.2
20260905233002 33 13 4.8 11.3 0.00 0.00 0.00 57 1010.2
20260905232503 34 15 6.4 12.9 0.00 0.00 0.00 57 1010.2
20260905232004 34 23 6.4 12.9 0.00 0.00 0.00 56 1010.2
20260905231502 34 30 6.4 9.7 0.00 0.00 0.00 56 1010.0
20260905231002 35 19 6.4 14.5 0.00 0.00 0.00 55 1010.0
20260905230504 35 4 8.0 14.5 0.00 0.00 0.00 55 1010.1
20260905230002 35 2 6.4 12.9 0.00 0.00 0.00 54 1009.9
20260905225502 35 2 9.7 17.7 0.00 0.00 0.00 53 1010.0
20260905224502 35 1 12.9 24.1 0.00 0.00 0.00 52 1009.9
20260905224002 35 3 14.5 22.5 0.00 0.00 0.00 52 1010.0
20260905223003 36 3 11.3 19.3 0.00 0.00 0.00 51 1009.9
20260905222502 36 6 12.9 19.3 0.00 0.00 0.00 51 1009.9
20260905222003 36 5 12.9 20.9 0.00 0.00 0.00 50 1009.9
20260905220503 36 355 11.3 19.3 0.00 0.00 0.00 50 1009.8
20260905220002 36 355 11.3 20.9 0.00 0.00 0.00 50 1010.0
20260905215502 36 358 11.3 20.9 0.00 0.00 0.00 49 1009.8
20260905215004 36 347 9.7 20.9 0.00 0.00 0.00 49 1009.8
20260905214502 36 344 9.7 19.3 0.00 0.00 0.00 50 1009.8
20260905214002 36 349 11.3 19.3 0.00 0.00 0.00 50 1009.7
20260905213002 35 344 8.0 17.7 0.00 0.00 0.00 52 1009.8
20260905212502 35 335 8.0 14.5 0.00 0.00 0.00 52 1009.9
20260905211502 35 338 11.3 20.9 0.00 0.00 0.00 50 1010.1
20260905211002 35 339 12.9 22.5 0.00 0.00 0.00 49 1010.1
20260905210002 36 353 14.5 25.7 0.00 0.00 0.00 49 1010.2
20260905205502 36 351 16.1 27.4 0.00 0.00 0.00 48 1010.2
20260905205004 36 345 16.1 30.6 0.00 0.00 0.00 47 1010.3
20260905204502 36 348 16.1 30.6 0.00 0.00 0.00 48 1010.3
20260905204002 37 349 11.3 27.4 0.00 0.00 0.00 47 1010.3
20260905203503 37 337 9.7 24.1 0.00 0.00 0.00 47 1010.1
20260905203002 37 336 9.7 24.1 0.00 0.00 0.00 46 1010.2
20260905202502 37 337 8.0 19.3 0.00 0.00 0.00 46 1010.3
20260905201003 37 317 8.0 24.1 0.00 0.00 0.00 46 1010.4
20260905200002 37 356 11.3 19.3 0.00 0.00 0.00 46 1010.5
20260905195502 37 350 11.3 19.3 0.00 0.00 0.00 47 1010.5
20260905195004 37 333 11.3 19.3 0.00 0.00 0.00 47 1010.5
20260905194502 37 322 9.7 19.3 0.00 0.00 0.00 47 1010.6
20260905194002 37 299 6.4 17.7 0.00 0.00 0.00 47 1010.5
20260905193504 37 278 6.4 17.7 0.00 0.00 0.00 46 1010.6
20260905193002 37 272 6.4 17.7 0.00 0.00 0.00 47 1010.5
20260905192502 37 307 3.2 16.1 0.00 0.00 0.00 47 1010.6
20260905192003 37 305 3.2 9.7 0.00 0.00 0.00 49 1010.7
20260905191001 36 275 4.8 11.3 0.00 0.00 0.00 50 1010.9
20260905190503 36 275 6.4 16.1 0.00 0.00 0.00 50 1010.9
20260905190002 36 269 6.4 16.1 0.00 0.00 0.00 48 1011.0
20260905185502 36 264 6.4 16.1 0.00 0.00 0.00 50 1011.1
20260905184501 36 264 4.8 11.3 0.00 0.00 0.00 50 1011.2
20260905184002 36 245 4.8 9.7 0.00 0.00 0.00 52 1011.3
20260905183504 36 295 4.8 16.1 0.00 0.00 0.00 53 1011.5
20260905183002 36 307 6.4 17.7 0.00 0.00 0.00 52 1011.5
20260905182502 36 283 6.4 17.7 0.00 0.00 0.00 53 1011.6
20260905182004 36 264 3.2 11.3 0.00 0.00 0.00 55 1011.5
20260905181501 35 241 3.2 8.0 0.00 0.00 0.00 55 1011.5
20260905181001 35 231 3.2 12.9 0.00 0.00 0.00 55 1011.6
20260905180504 35 245 4.8 14.5 0.00 0.00 0.00 56 1011.7
20260905180002 35 236 6.4 14.5 0.00 0.00 0.00 55 1011.7
20260905175502 35 235 6.4 12.9 0.00 0.00 0.00 56 1011.7
20260905175003 35 235 4.8 12.9 0.00 0.00 0.00 57 1011.8
20260905174002 35 276 4.8 12.9 0.00 0.00 0.00 58 1011.9
20260905173002 35 243 4.8 14.5 0.00 0.00 0.00 58 1011.9
20260905172502 35 241 6.4 16.1 0.00 0.00 0.00 59 1011.9
20260905172003 35 248 4.8 16.1 0.00 0.00 0.00 61 1012.0
20260905171502 34 261 3.2 12.9 0.00 0.00 0.00 61 1012.1
20260905171001 34 226 4.8 12.9 0.00 0.00 0.00 61 1012.2
20260905170503 34 221 6.4 12.9 0.00 0.00 0.00 61 1012.3
20260905165502 33 242 4.8 11.3 0.00 0.00 0.00 62 1012.4
20260905165003 33 226 4.8 11.3 0.00 0.00 0.00 62 1012.5
20260905164502 33 219 6.4 14.5 0.00 0.00 0.00 62 1012.4
20260905164002 33 202 6.4 16.1 0.00 0.00 0.00 62 1012.5
20260905163504 33 210 4.8 16.1 0.00 0.00 0.00 63 1012.4
20260905163001 33 242 4.8 12.9 0.00 0.00 0.00 64 1012.5
20260905162502 33 234 6.4 11.3 0.00 0.00 0.00 63 1012.5
20260905162003 33 220 4.8 11.3 0.00 0.00 0.00 63 1012.7
20260905161502 33 246 3.2 9.7 0.00 0.00 0.00 64 1012.7
20260905161002 32 272 4.8 11.3 0.00 0.00 0.00 65 1012.7
20260905160503 32 267 4.8 12.9 0.00 0.00 0.00 65 1012.7
20260905160002 32 244 4.8 12.9 0.00 0.00 0.00 65 1012.6
20260905155501 32 217 4.8 14.5 0.00 0.00 0.00 66 1012.6
20260905155003 32 214 4.8 14.5 0.00 0.00 0.00 67 1012.6
20260905154501 32 224 4.8 11.3 0.00 0.00 0.00 67 1012.7
20260905154002 32 245 4.8 11.3 0.00 0.00 0.00 68 1012.8
20260905153503 32 234 4.8 9.7 0.00 0.00 0.00 69 1012.8
20260905153002 32 240 4.8 9.7 0.00 0.00 0.00 68 1012.8
20260905152003 31 250 3.2 11.3 0.00 0.00 0.00 70 1012.8
20260905151502 31 252 3.2 9.7 0.00 0.00 0.00 71 1012.8
20260905151002 31 258 4.8 9.7 0.00 0.00 0.00 70 1012.8
20260905150503 31 234 4.8 12.9 0.00 0.00 0.00 70 1012.9
20260905150002 31 232 4.8 12.9 0.00 0.00 0.00 70 1012.8
20260905145501 31 231 1.6 6.4 0.00 0.00 0.00 73 1012.8
20260905145003 31 220 3.2 8.0 0.00 0.00 0.00 73 1012.8
20260905144502 30 236 4.8 8.0 0.00 0.00 0.00 72 1012.7
20260905144002 30 237 3.2 9.7 0.00 0.00 0.00 74 1012.7
20260905143505 30 234 3.2 11.3 0.00 0.00 0.00 75 1012.7
20260905143001 30 239 3.2 11.3 0.00 0.00 0.00 76 1012.7
20260905142501 30 221 4.8 11.3 0.00 0.00 0.00 77 1012.6
20260905142003 30 215 4.8 8.0 0.00 0.00 0.00 78 1012.6
20260905141002 29 225 3.2 6.4 0.00 0.00 0.00 78 1012.8
20260905140503 29 216 1.6 6.4 0.00 0.00 0.00 80 1012.9
20260905140001 28 213 3.2 8.0 0.00 0.00 0.00 81 1012.9
20260905135502 28 211 3.2 8.0 0.00 0.00 0.00 81 1012.9
20260905135003 28 219 1.6 6.4 0.00 0.00 0.00 81 1013.0
20260905134502 28 0 0.0 0.0 0.00 0.00 0.00 83 1013.0
20260905134002 28 0 0.0 0.0 0.00 0.00 0.00 83 1013.0
20260905133503 27 0 0.0 0.0 0.00 0.00 0.00 84 1013.0
20260905133001 27 0 0.0 0.0 0.00 0.00 0.00 84 1012.9
20260905132502 27 187 0.0 4.8 0.00 0.00 0.00 85 1012.9
20260905132004 27 188 3.2 8.0 0.00 0.00 0.00 85 1012.9
20260905131502 26 191 3.2 8.0 0.00 0.00 0.00 86 1012.9
20260905131001 26 195 1.6 8.0 0.00 0.00 0.00 86 1012.8
20260905130503 26 0 0.0 0.0 0.00 0.00 0.00 87 1012.9
20260905130002 25 251 0.0 3.2 0.00 0.00 0.00 88 1012.8
20260905125502 25 251 1.6 3.2 0.00 0.00 0.00 88 1012.8
20260905125003 25 250 1.6 3.2 0.00 0.00 0.00 88 1012.8
20260905124502 25 0 0.0 0.0 0.00 0.00 0.00 88 1012.8
20260905124001 24 0 0.0 0.0 0.00 0.00 0.00 89 1012.8
20260905123503 24 0 0.0 0.0 0.00 0.00 0.00 89 1012.7
20260905123001 23 0 0.0 0.0 0.00 0.00 0.00 89 1012.7
20260905122501 23 0 0.0 0.0 0.00 0.00 0.00 89 1012.7
20260905122003 23 0 0.0 0.0 0.00 0.00 0.00 89 1012.7
20260905121001 23 0 0.0 0.0 0.00 0.00 0.00 89 1012.5
20260905120503 22 0 0.0 0.0 0.00 0.00 0.00 89 1012.4
20260905120002 22 0 0.0 0.0 0.00 0.00 0.00 89 1012.4
20260905115502 22 0 0.0 0.0 0.00 0.00 0.00 89 1012.3
20260905115003 22 0 0.0 0.0 0.00 0.00 0.00 89 1012.3
20260905114502 22 0 0.0 0.0 0.00 0.00 0.00 89 1012.3
20260905114002 22 0 0.0 0.0 0.00 0.00 0.00 89 1012.3
20260905113503 22 0 0.0 0.0 0.00 0.00 0.00 89 1012.3
20260905113001 22 0 0.0 0.0 0.00 0.00 0.00 89 1012.3
20260905112502 22 0 0.0 0.0 0.00 0.00 0.00 89 1012.3
20260905111502 22 0 0.0 0.0 0.00 0.00 0.00 89 1012.3
20260905110503 22 0 0.0 0.0 0.00 0.00 0.00 88 1012.2
20260905110001 22 0 0.0 0.0 0.00 0.00 0.00 89 1012.1
20260905105502 22 0 0.0 0.0 0.00 0.00 0.00 89 1012.2
20260905105002 23 0 0.0 0.0 0.00 0.00 0.00 88 1012.1
20260905104002 23 0 0.0 0.0 0.00 0.00 0.00 88 1012.1
20260905103503 23 0 0.0 0.0 0.00 0.00 0.00 88 1012.1
20260905103002 23 0 0.0 0.0 0.00 0.00 0.00 88 1012.2
20260905102501 23 0 0.0 0.0 0.00 0.00 0.00 88 1012.2
20260905102003 23 0 0.0 0.0 0.00 0.00 0.00 88 1012.2
20260905101502 23 0 0.0 0.0 0.00 0.00 0.00 88 1012.3
20260905101001 23 0 0.0 0.0 0.00 0.00 0.00 88 1012.2
20260905100503 23 0 0.0 0.0 0.00 0.00 0.00 88 1012.1
20260905100001 23 0 0.0 0.0 0.00 0.00 0.00 88 1012.1
20260905095501 23 0 0.0 0.0 0.00 0.00 0.00 88 1012.2
20260905095003 23 0 0.0 0.0 0.00 0.00 0.00 88 1012.2
20260905094501 23 0 0.0 0.0 0.00 0.00 0.00 88 1012.1
20260905094002 23 0 0.0 0.0 0.00 0.00 0.00 88 1012.1
20260905093502 23 0 0.0 0.0 0.00 0.00 0.00 88 1012.1
20260905093002 23 0 0.0 0.0 0.00 0.00 0.00 87 1012.0
20260905092501 23 0 0.0 0.0 0.00 0.00 0.00 87 1012.0
20260905092002 23 0 0.0 0.0 0.00 0.00 0.00 87 1011.9
20260905091502 23 0 0.0 0.0 0.00 0.00 0.00 87 1011.9
20260905091001 23 0 0.0 0.0 0.00 0.00 0.00 87 1012.0
20260905090503 23 0 0.0 0.0 0.00 0.00 0.00 87 1012.0
20260905085501 23 0 0.0 0.0 0.00 0.00 0.00 87 1011.9
20260905085003 23 0 0.0 0.0 0.00 0.00 0.00 87 1011.9
20260905084501 23 0 0.0 0.0 0.00 0.00 0.00 87 1011.9
20260905084001 23 0 0.0 0.0 0.00 0.00 0.00 87 1012.0
20260905083503 23 0 0.0 0.0 0.00 0.00 0.00 87 1012.0
20260905083001 23 0 0.0 0.0 0.00 0.00 0.00 87 1012.0
20260905082003 23 0 0.0 0.0 0.00 0.00 0.00 87 1012.1
20260905081501 23 0 0.0 0.0 0.00 0.00 0.00 87 1012.1
20260905081002 23 0 0.0 0.0 0.00 0.00 0.00 87 1012.1
20260905080503 23 0 0.0 0.0 0.00 0.00 0.00 87 1012.2
20260905075502 23 0 0.0 0.0 0.00 0.00 0.00 87 1012.3
20260905075002 23 0 0.0 0.0 0.00 0.00 0.00 87 1012.2
20260905074501 23 0 0.0 0.0 0.00 0.00 0.00 87 1012.2
20260905074001 24 0 0.0 0.0 0.00 0.00 0.00 87 1012.2
20260905073002 24 0 0.0 0.0 0.00 0.00 0.00 87 1012.2
20260905072501 24 0 0.0 0.0 0.00 0.00 0.00 87 1012.1
20260905072003 24 0 0.0 0.0 0.00 0.00 0.00 86 1012.1
20260905071501 24 0 0.0 0.0 0.00 0.00 0.00 86 1012.1
20260905071001 24 0 0.0 0.0 0.00 0.00 0.00 86 1012.2
20260905070503 24 0 0.0 0.0 0.00 0.00 0.00 86 1012.2
20260905070001 24 0 0.0 0.0 0.00 0.00 0.00 86 1012.2
20260905065501 24 0 0.0 0.0 0.00 0.00 0.00 86 1012.3
20260905064501 24 0 0.0 0.0 0.00 0.00 0.00 86 1012.2
20260905064002 24 0 0.0 0.0 0.00 0.00 0.00 86 1012.3
20260905063503 25 0 0.0 0.0 0.00 0.00 0.00 85 1012.3
20260905063001 25 0 0.0 0.0 0.00 0.00 0.00 85 1012.2
20260905062003 25 0 0.0 0.0 0.00 0.00 0.00 85 1012.3
20260905061501 25 0 0.0 0.0 0.00 0.00 0.00 85 1012.4
20260905061001 25 0 0.0 0.0 0.00 0.00 0.00 85 1012.5
20260905060503 25 0 0.0 0.0 0.00 0.00 0.00 85 1012.5
20260905060001 25 0 0.0 0.0 0.00 0.00 0.00 85 1012.5
20260905055003 25 0 0.0 0.0 0.00 0.00 0.00 85 1012.5
20260905054501 25 0 0.0 0.0 0.00 0.00 0.00 85 1012.6
20260905054001 25 0 0.0 0.0 0.00 0.00 0.00 85 1012.5
20260905053001 25 0 0.0 0.0 0.00 0.00 0.00 85 1012.6
20260905052501 25 0 0.0 0.0 0.00 0.00 0.00 85 1012.6
20260905052003 25 0 0.0 0.0 0.00 0.00 0.00 84 1012.6
20260905051001 25 0 0.0 0.0 0.00 0.00 0.00 84 1012.6
20260905050503 25 0 0.0 0.0 0.00 0.00 0.00 83 1012.6
20260905050001 25 0 0.0 0.0 0.00 0.00 0.00 83 1012.6
20260905045501 25 0 0.0 0.0 0.00 0.00 0.00 83 1012.6
20260905045003 25 0 0.0 0.0 0.00 0.00 0.00 83 1012.7
20260905044502 26 0 0.0 0.0 0.00 0.00 0.00 83 1012.7
20260905043503 25 0 0.0 0.0 0.00 0.00 0.00 83 1012.6
20260905043001 25 0 0.0 0.0 0.00 0.00 0.00 84 1012.6
20260905042501 25 0 0.0 0.0 0.00 0.00 0.00 84 1012.5
20260905041001 25 0 0.0 0.0 0.00 0.00 0.00 84 1012.5
20260905040001 25 0 0.0 0.0 0.00 0.00 0.00 83 1012.4
20260905035501 25 0 0.0 0.0 0.00 0.00 0.00 83 1012.5
20260905035002 25 0 0.0 0.0 0.00 0.00 0.00 83 1012.4
20260905034501 25 0 0.0 0.0 0.00 0.00 0.00 83 1012.4
20260905034001 26 0 0.0 0.0 0.00 0.00 0.00 82 1012.4
20260905033001 26 0 0.0 0.0 0.00 0.00 0.00 83 1012.4
20260905032501 26 0 0.0 0.0 0.00 0.00 0.00 82 1012.5
20260905032003 26 0 0.0 0.0 0.00 0.00 0.00 82 1012.5
20260905031500 26 0 0.0 0.0 0.00 0.00 0.00 83 1012.5
20260905031001 26 0 0.0 0.0 0.00 0.00 0.00 82 1012.4
20260905030503 26 0 0.0 0.0 0.00 0.00 0.00 82 1012.5
20260905030001 26 0 0.0 0.0 0.00 0.00 0.00 82 1012.4
20260905025501 26 0 0.0 0.0 0.00 0.00 0.00 81 1012.5
20260905024000 26 0 0.0 0.0 0.00 0.00 0.00 80 1012.4
20260905023502 26 0 0.0 0.0 0.00 0.00 0.00 80 1012.4
20260905023002 26 0 0.0 0.0 0.00 0.00 0.00 80 1012.3